Time,TemperatureF,DewpointF,PressureIn,WindDirection,WindDirectionDegrees,WindSpeedMPH,WindSpeedGustMPH,Humidity,HourlyPrecipIn,Conditions,Clouds,dailyrainin,SoftwareType,DateUTC
2013-01-13 00:00:00,58.0,-99.9,29.88,SSE,160,15.0,20.0,-999,-99.99,,,-99.99,,2013-01-13 05:00:00,
2013-01-13 00:12:00,57.0,-99.9,29.90,South,170,13.0,16.0,-999,-99.99,,,-99.99,,2013-01-13 05:12:00,
2013-01-13 00:23:00,58.0,-99.9,29.88,SSE,160,15.0,20.0,-999,-99.99,,,-99.99,,2013-01-13 05:23:00,
2013-01-13 00:33:00,58.0,-99.9,29.88,SSE,160,15.0,20.0,-999,-99.99,,,-99.99,,2013-01-13 05:33:00,
2013-01-13 00:42:00,58.0,-99.9,29.88,SSE,160,15.0,20.0,-999,-99.99,,,-99.99,,2013-01-13 05:42:00,
2013-01-13 00:53:00,58.0,-99.9,29.88,SSE,160,15.0,20.0,-999,-99.99,,,-99.99,,2013-01-13 05:53:00,
2013-01-13 01:12:00,59.0,-99.9,29.86,SSE,160,14.0,20.0,-999,-99.99,,,-99.99,,2013-01-13 06:12:00,
2013-01-13 01:22:00,59.0,-99.9,29.85,South,170,15.0,21.0,-999,-99.99,,,-99.99,,2013-01-13 06:22:00,
2013-01-13 01:33:00,59.0,-99.9,29.85,South,170,15.0,21.0,-999,-99.99,,,-99.99,,2013-01-13 06:33:00,
2013-01-13 01:43:00,59.0,-99.9,29.83,South,170,13.0,22.0,-999,-99.99,,,-99.99,,2013-01-13 06:43:00,
2013-01-13 01:53:00,59.0,-99.9,29.83,South,170,13.0,22.0,-999,-99.99,,,-99.99,,2013-01-13 06:53:00,
2013-01-13 02:00:00,58.0,-99.9,29.81,South,170,9.0,15.0,-999,-99.99,,,-99.99,,2013-01-13 07:00:00,
2013-01-13 02:02:00,59.0,-99.9,29.83,South,170,13.0,22.0,-999,-99.99,,,-99.99,,2013-01-13 07:02:00,
2013-01-13 02:12:00,59.0,-99.9,29.83,South,170,13.0,22.0,-999,-99.99,,,-99.99,,2013-01-13 07:12:00,
2013-01-13 02:22:00,58.0,-99.9,29.81,South,170,9.0,15.0,-999,-99.99,,,-99.99,,2013-01-13 07:22:00,
2013-01-13 02:33:00,58.0,-99.9,29.81,South,170,9.0,15.0,-999,-99.99,,,-99.99,,2013-01-13 07:33:00,
2013-01-13 02:42:00,58.0,-99.9,29.81,South,170,9.0,15.0,-999,-99.99,,,-99.99,,2013-01-13 07:42:00,
2013-01-13 02:53:00,58.0,-99.9,29.81,South,170,9.0,15.0,-999,-99.99,,,-99.99,,2013-01-13 07:53:00,
2013-01-13 03:12:00,60.0,-99.9,29.80,South,180,13.0,18.0,-999,-99.99,,,-99.99,,2013-01-13 08:12:00,
2013-01-13 03:22:00,62.0,-99.9,29.78,South,190,15.0,22.0,-999,-99.99,,,-99.99,,2013-01-13 08:22:00,
2013-01-13 03:33:00,62.0,-99.9,29.78,South,190,15.0,22.0,-999,-99.99,,,-99.99,,2013-01-13 08:33:00,
2013-01-13 03:42:00,62.0,-99.9,29.78,South,190,15.0,22.0,-999,-99.99,,,-99.99,,2013-01-13 08:42:00,
2013-01-13 03:53:00,63.0,-99.9,29.77,South,190,20.0,25.0,-999,-99.99,,,-99.99,,2013-01-13 08:53:00,
2013-01-13 04:02:00,63.0,-99.9,29.77,South,190,20.0,25.0,-999,-99.99,,,-99.99,,2013-01-13 09:02:00,
2013-01-13 04:12:00,63.0,-99.9,29.77,South,190,20.0,25.0,-999,-99.99,,,-99.99,,2013-01-13 09:12:00,
2013-01-13 04:22:00,62.0,-99.9,29.75,South,180,20.0,24.0,-999,-99.99,,,-99.99,,2013-01-13 09:22:00,
2013-01-13 04:32:00,62.0,-99.9,29.75,South,180,20.0,24.0,-999,-99.99,,,-99.99,,2013-01-13 09:32:00,
2013-01-13 04:43:00,62.0,-99.9,29.75,South,180,20.0,24.0,-999,-99.99,,,-99.99,,2013-01-13 09:43:00,
2013-01-13 04:53:00,62.0,-99.9,29.75,South,180,20.0,24.0,-999,-99.99,,,-99.99,,2013-01-13 09:53:00,
2013-01-13 05:03:00,64.0,-99.9,29.74,SSW,200,21.0,28.0,-999,-99.99,,,-99.99,,2013-01-13 10:03:00,
2013-01-13 05:12:00,64.0,-99.9,29.74,SSW,200,21.0,28.0,-999,-99.99,,,-99.99,,2013-01-13 10:12:00,
2013-01-13 05:22:00,63.0,-99.9,29.73,SSW,200,20.0,25.0,-999,-99.99,,,-99.99,,2013-01-13 10:22:00,
2013-01-13 05:33:00,63.0,-99.9,29.73,SSW,200,20.0,25.0,-999,-99.99,,,-99.99,,2013-01-13 10:33:00,
2013-01-13 05:42:00,63.0,-99.9,29.73,SSW,200,20.0,25.0,-999,-99.99,,,-99.99,,2013-01-13 10:42:00,
2013-01-13 05:53:00,63.0,-99.9,29.73,SSW,200,18.0,26.0,-999,-99.99,,,-99.99,,2013-01-13 10:53:00,
2013-01-13 06:00:00,64.0,-99.9,29.72,SSW,200,21.0,28.0,-999,-99.99,,,-99.99,,2013-01-13 11:00:00,
2013-01-13 06:02:00,63.0,-99.9,29.73,SSW,200,18.0,26.0,-999,-99.99,,,-99.99,,2013-01-13 11:02:00,
2013-01-13 06:12:00,63.0,-99.9,29.73,SSW,200,18.0,26.0,-999,-99.99,,,-99.99,,2013-01-13 11:12:00,
2013-01-13 06:22:00,64.0,-99.9,29.72,SSW,200,21.0,28.0,-999,-99.99,,,-99.99,,2013-01-13 11:22:00,
2013-01-13 06:33:00,64.0,-99.9,29.72,SSW,200,21.0,28.0,-999,-99.99,,,-99.99,,2013-01-13 11:33:00,
2013-01-13 06:43:00,64.0,-99.9,29.72,SSW,200,21.0,28.0,-999,-99.99,,,-99.99,,2013-01-13 11:43:00,
2013-01-13 06:53:00,64.0,-99.9,29.72,SSW,200,21.0,28.0,-999,-99.99,,,-99.99,,2013-01-13 11:53:00,
2013-01-13 07:22:00,65.0,-99.9,29.73,SSW,200,26.0,34.0,-999,-99.99,,,-99.99,,2013-01-13 12:22:00,
2013-01-13 07:33:00,65.0,-99.9,29.73,SSW,200,26.0,34.0,-999,-99.99,,,-99.99,,2013-01-13 12:33:00,
2013-01-13 07:42:00,65.0,-99.9,29.73,SSW,200,26.0,34.0,-999,-99.99,,,-99.99,,2013-01-13 12:42:00,
2013-01-13 07:53:00,65.0,-99.9,29.73,SSW,200,24.0,31.0,-999,-99.99,,,-99.99,,2013-01-13 12:53:00,
2013-01-13 08:03:00,65.0,-99.9,29.73,SSW,200,24.0,31.0,-999,-99.99,,,-99.99,,2013-01-13 13:03:00,
2013-01-13 08:22:00,65.0,-99.9,29.75,SSW,200,24.0,33.0,-999,-99.99,,,-99.99,,2013-01-13 13:22:00,
2013-01-13 08:33:00,65.0,-99.9,29.75,SSW,200,24.0,33.0,-999,-99.99,,,-99.99,,2013-01-13 13:33:00,
2013-01-13 08:43:00,65.0,-99.9,29.74,SSW,200,22.0,29.0,-999,-99.99,,,-99.99,,2013-01-13 13:43:00,
2013-01-13 08:53:00,65.0,-99.9,29.74,SSW,200,22.0,29.0,-999,-99.99,,,-99.99,,2013-01-13 13:53:00,
2013-01-13 09:00:00,65.0,-99.9,29.78,SW,220,20.0,29.0,-999,-99.99,,,-99.99,,2013-01-13 14:00:00,
2013-01-13 09:03:00,65.0,-99.9,29.75,SSW,200,25.0,-999.0,-999,-99.99,,,-99.99,,2013-01-13 14:03:00,
2013-01-13 09:13:00,65.0,-99.9,29.75,SSW,200,25.0,-999.0,-999,-99.99,,,-99.99,,2013-01-13 14:13:00,
2013-01-13 09:23:00,65.0,-99.9,29.78,SW,220,20.0,29.0,-999,-99.99,,,-99.99,,2013-01-13 14:23:00,
2013-01-13 09:33:00,65.0,-99.9,29.78,SW,220,20.0,29.0,-999,-99.99,,,-99.99,,2013-01-13 14:33:00,
2013-01-13 09:43:00,65.0,-99.9,29.78,SW,220,20.0,29.0,-999,-99.99,,,-99.99,,2013-01-13 14:43:00,
2013-01-13 09:53:00,65.0,-99.9,29.78,SW,220,20.0,29.0,-999,-99.99,,,-99.99,,2013-01-13 14:53:00,
2013-01-13 10:13:00,-999.0,-99.9,29.82,WSW,250,18.0,28.0,-999,-99.99,,,-99.99,,2013-01-13 15:13:00,
2013-01-13 10:23:00,-999.0,-99.9,29.82,WSW,250,18.0,28.0,-999,-99.99,,,-99.99,,2013-01-13 15:23:00,
2013-01-13 10:33:00,-999.0,-99.9,29.82,WSW,250,18.0,28.0,-999,-99.99,,,-99.99,,2013-01-13 15:33:00,
2013-01-13 10:43:00,-999.0,-99.9,29.82,WSW,250,18.0,28.0,-999,-99.99,,,-99.99,,2013-01-13 15:43:00,
2013-01-13 10:53:00,-999.0,-99.9,29.82,West,280,14.0,22.0,-999,-99.99,,,-99.99,,2013-01-13 15:53:00,
2013-01-13 11:00:00,-999.0,-99.9,29.86,West,270,23.0,29.0,-999,-99.99,,,-99.99,,2013-01-13 16:00:00,
2013-01-13 11:04:00,-999.0,-99.9,29.82,West,280,14.0,22.0,-999,-99.99,,,-99.99,,2013-01-13 16:04:00,
2013-01-13 11:13:00,-999.0,-99.9,29.82,West,280,14.0,22.0,-999,-99.99,,,-99.99,,2013-01-13 16:13:00,
2013-01-13 11:23:00,-999.0,-99.9,29.86,West,270,23.0,29.0,-999,-99.99,,,-99.99,,2013-01-13 16:23:00,
2013-01-13 11:33:00,-999.0,-99.9,29.86,West,270,23.0,29.0,-999,-99.99,,,-99.99,,2013-01-13 16:33:00,
2013-01-13 11:43:00,-999.0,-99.9,29.86,West,270,23.0,29.0,-999,-99.99,,,-99.99,,2013-01-13 16:43:00,
2013-01-13 11:53:00,-999.0,-99.9,29.86,West,270,23.0,29.0,-999,-99.99,,,-99.99,,2013-01-13 16:53:00,
2013-01-13 12:13:00,-999.0,-99.9,29.86,West,270,15.0,-999.0,-999,-99.99,,,-99.99,,2013-01-13 17:13:00,
2013-01-13 12:23:00,-999.0,-99.9,29.86,West,280,17.0,21.0,-999,-99.99,,,-99.99,,2013-01-13 17:23:00,
2013-01-13 12:33:00,-999.0,-99.9,29.86,West,280,17.0,21.0,-999,-99.99,,,-99.99,,2013-01-13 17:33:00,
2013-01-13 12:43:00,-999.0,-99.9,29.86,West,280,17.0,21.0,-999,-99.99,,,-99.99,,2013-01-13 17:43:00,
2013-01-13 12:53:00,-999.0,-99.9,29.86,West,280,17.0,21.0,-999,-99.99,,,-99.99,,2013-01-13 17:53:00,
2013-01-13 13:03:00,-999.0,-99.9,29.82,West,280,10.0,18.0,-999,-99.99,,,-99.99,,2013-01-13 18:03:00,
2013-01-13 13:12:00,-999.0,-99.9,29.82,West,280,10.0,18.0,-999,-99.99,,,-99.99,,2013-01-13 18:12:00,
2013-01-13 13:23:00,-999.0,-99.9,29.81,WNW,290,6.0,8.0,-999,-99.99,,,-99.99,,2013-01-13 18:23:00,
2013-01-13 13:33:00,-999.0,-99.9,29.81,WNW,290,6.0,8.0,-999,-99.99,,,-99.99,,2013-01-13 18:33:00,
2013-01-13 13:43:00,-999.0,-99.9,29.81,WNW,290,6.0,8.0,-999,-99.99,,,-99.99,,2013-01-13 18:43:00,
2013-01-13 13:54:00,-999.0,-99.9,29.84,NW,310,18.0,21.0,-999,-99.99,,,-99.99,,2013-01-13 18:54:00,
2013-01-13 14:03:00,-999.0,-99.9,29.84,NW,310,18.0,21.0,-999,-99.99,,,-99.99,,2013-01-13 19:03:00,
2013-01-13 14:12:00,-999.0,-99.9,29.84,NW,310,18.0,21.0,-999,-99.99,,,-99.99,,2013-01-13 19:12:00,
2013-01-13 14:23:00,-999.0,-99.9,29.86,West,260,9.0,16.0,-999,-99.99,,,-99.99,,2013-01-13 19:23:00,
2013-01-13 14:33:00,-999.0,-99.9,29.86,West,260,9.0,16.0,-999,-99.99,,,-99.99,,2013-01-13 19:33:00,
2013-01-13 14:43:00,-999.0,-99.9,29.86,West,260,9.0,16.0,-999,-99.99,,,-99.99,,2013-01-13 19:43:00,
2013-01-13 14:53:00,-999.0,-99.9,29.86,West,260,9.0,16.0,-999,-99.99,,,-99.99,,2013-01-13 19:53:00,
2013-01-13 15:03:00,-999.0,-99.9,29.87,West,260,10.0,21.0,-999,-99.99,,,-99.99,,2013-01-13 20:03:00,
2013-01-13 15:12:00,-999.0,-99.9,29.87,West,260,10.0,21.0,-999,-99.99,,,-99.99,,2013-01-13 20:12:00,
2013-01-13 15:23:00,-999.0,-99.9,29.87,WNW,290,11.0,11.0,-999,-99.99,,,-99.99,,2013-01-13 20:23:00,
2013-01-13 15:33:00,-999.0,-99.9,29.87,WNW,290,11.0,11.0,-999,-99.99,,,-99.99,,2013-01-13 20:33:00,
2013-01-13 15:43:00,-999.0,-99.9,29.87,WNW,290,11.0,11.0,-999,-99.99,,,-99.99,,2013-01-13 20:43:00,
2013-01-13 15:53:00,-999.0,-99.9,29.87,WNW,290,11.0,11.0,-999,-99.99,,,-99.99,,2013-01-13 20:53:00,
2013-01-13 16:00:00,-999.0,-99.9,29.88,SW,220,8.0,9.0,-999,-99.99,,,-99.99,,2013-01-13 21:00:00,
2013-01-13 16:03:00,-999.0,-99.9,29.90,West,270,9.0,15.0,-999,-99.99,,,-99.99,,2013-01-13 21:03:00,
2013-01-13 16:13:00,-999.0,-99.9,29.90,West,270,9.0,15.0,-999,-99.99,,,-99.99,,2013-01-13 21:13:00,
2013-01-13 16:23:00,-999.0,-99.9,29.88,SW,220,8.0,9.0,-999,-99.99,,,-99.99,,2013-01-13 21:23:00,
2013-01-13 16:33:00,-999.0,-99.9,29.88,SW,220,8.0,9.0,-999,-99.99,,,-99.99,,2013-01-13 21:33:00,
2013-01-13 16:43:00,-999.0,-99.9,29.88,SW,220,8.0,9.0,-999,-99.99,,,-99.99,,2013-01-13 21:43:00,
2013-01-13 16:53:00,-999.0,-99.9,29.88,SW,220,8.0,9.0,-999,-99.99,,,-99.99,,2013-01-13 21:53:00,
2013-01-13 17:00:00,46.0,-99.9,29.88,West,280,1.0,2.0,-999,-99.99,,,-99.99,,2013-01-13 22:00:00,
2013-01-13 17:13:00,44.0,-99.9,29.88,South,180,3.0,10.0,-999,-99.99,,,-99.99,,2013-01-13 22:13:00,
2013-01-13 17:23:00,46.0,-99.9,29.88,West,280,1.0,2.0,-999,-99.99,,,-99.99,,2013-01-13 22:23:00,
2013-01-13 17:33:00,46.0,-99.9,29.88,West,280,1.0,2.0,-999,-99.99,,,-99.99,,2013-01-13 22:33:00,
2013-01-13 17:43:00,46.0,-99.9,29.88,West,280,1.0,2.0,-999,-99.99,,,-99.99,,2013-01-13 22:43:00,
2013-01-13 17:53:00,46.0,-99.9,29.88,West,280,1.0,2.0,-999,-99.99,,,-99.99,,2013-01-13 22:53:00,
2013-01-13 18:00:00,38.0,-99.9,29.90,West,260,9.0,11.0,-999,-99.99,,,-99.99,,2013-01-13 23:00:00,
2013-01-13 18:12:00,39.0,-99.9,29.90,West,270,10.0,22.0,-999,-99.99,,,-99.99,,2013-01-13 23:12:00,
2013-01-13 18:23:00,38.0,-99.9,29.90,West,260,9.0,11.0,-999,-99.99,,,-99.99,,2013-01-13 23:23:00,
2013-01-13 18:33:00,38.0,-99.9,29.90,West,260,9.0,11.0,-999,-99.99,,,-99.99,,2013-01-13 23:33:00,
2013-01-13 18:43:00,38.0,-99.9,29.90,West,260,9.0,11.0,-999,-99.99,,,-99.99,,2013-01-13 23:43:00,
2013-01-13 18:53:00,38.0,-99.9,29.90,West,260,9.0,11.0,-999,-99.99,,,-99.99,,2013-01-13 23:53:00,
2013-01-13 19:00:00,41.0,-99.9,29.88,West,260,5.0,5.0,-999,-99.99,,,-99.99,,2013-01-14 00:00:00,
2013-01-13 19:13:00,40.0,-99.9,29.88,WSW,250,9.0,11.0,-999,-99.99,,,-99.99,,2013-01-14 00:13:00,
2013-01-13 19:23:00,41.0,-99.9,29.88,West,260,5.0,5.0,-999,-99.99,,,-99.99,,2013-01-14 00:23:00,
2013-01-13 19:33:00,41.0,-99.9,29.88,West,260,5.0,5.0,-999,-99.99,,,-99.99,,2013-01-14 00:33:00,
2013-01-13 19:43:00,41.0,-99.9,29.88,West,260,5.0,5.0,-999,-99.99,,,-99.99,,2013-01-14 00:43:00,
2013-01-13 19:53:00,41.0,-99.9,29.88,West,260,5.0,5.0,-999,-99.99,,,-99.99,,2013-01-14 00:53:00,
2013-01-13 20:00:00,42.0,-99.9,29.88,WSW,240,2.0,3.0,-999,-99.99,,,-99.99,,2013-01-14 01:00:00,
2013-01-13 20:13:00,42.0,-99.9,29.88,SSW,210,3.0,9.0,-999,-99.99,,,-99.99,,2013-01-14 01:13:00,
2013-01-13 20:22:00,42.0,-99.9,29.88,WSW,240,2.0,3.0,-999,-99.99,,,-99.99,,2013-01-14 01:22:00,
2013-01-13 20:33:00,42.0,-99.9,29.88,WSW,240,2.0,3.0,-999,-99.99,,,-99.99,,2013-01-14 01:33:00,
2013-01-13 20:43:00,42.0,-99.9,29.88,WSW,240,2.0,3.0,-999,-99.99,,,-99.99,,2013-01-14 01:43:00,
2013-01-13 20:53:00,42.0,-99.9,29.88,WSW,240,2.0,3.0,-999,-99.99,,,-99.99,,2013-01-14 01:53:00,
2013-01-13 21:12:00,41.0,-99.9,29.87,WNW,300,11.0,13.0,-999,-99.99,,,-99.99,,2013-01-14 02:12:00,
2013-01-13 21:23:00,39.0,-99.9,29.83,South,180,1.0,6.0,-999,-99.99,,,-99.99,,2013-01-14 02:23:00,
2013-01-13 21:33:00,39.0,-99.9,29.83,South,180,1.0,6.0,-999,-99.99,,,-99.99,,2013-01-14 02:33:00,
2013-01-13 21:43:00,39.0,-99.9,29.83,South,180,1.0,6.0,-999,-99.99,,,-99.99,,2013-01-14 02:43:00,
2013-01-13 21:53:00,39.0,-99.9,29.84,West,270,3.0,11.0,-999,-99.99,,,-99.99,,2013-01-14 02:53:00,
2013-01-13 22:00:00,39.0,-99.9,29.83,NW,310,10.0,11.0,-999,-99.99,,,-99.99,,2013-01-14 03:00:00,
2013-01-13 22:03:00,39.0,-99.9,29.84,West,270,3.0,11.0,-999,-99.99,,,-99.99,,2013-01-14 03:03:00,
2013-01-13 22:12:00,39.0,-99.9,29.84,West,270,3.0,11.0,-999,-99.99,,,-99.99,,2013-01-14 03:12:00,
2013-01-13 22:22:00,39.0,-99.9,29.83,NW,310,10.0,11.0,-999,-99.99,,,-99.99,,2013-01-14 03:22:00,
2013-01-13 22:33:00,39.0,-99.9,29.83,NW,310,10.0,11.0,-999,-99.99,,,-99.99,,2013-01-14 03:33:00,
2013-01-13 22:43:00,39.0,-99.9,29.83,NW,310,10.0,11.0,-999,-99.99,,,-99.99,,2013-01-14 03:43:00,
2013-01-13 22:53:00,39.0,-99.9,29.83,NW,310,10.0,11.0,-999,-99.99,,,-99.99,,2013-01-14 03:53:00,
2013-01-13 23:00:00,38.0,-99.9,29.86,West,280,17.0,20.0,-999,-99.99,,,-99.99,,2013-01-14 04:00:00,
2013-01-13 23:22:00,38.0,-99.9,29.86,West,280,17.0,20.0,-999,-99.99,,,-99.99,,2013-01-14 04:22:00,
2013-01-13 23:32:00,38.0,-99.9,29.86,West,280,17.0,20.0,-999,-99.99,,,-99.99,,2013-01-14 04:32:00,
2013-01-13 23:42:00,38.0,-99.9,29.86,West,280,17.0,20.0,-999,-99.99,,,-99.99,,2013-01-14 04:42:00,
2013-01-13 23:53:00,38.0,-99.9,29.86,West,280,17.0,20.0,-999,-99.99,,,-99.99,,2013-01-14 04:53:00,